{"data":{"norad_id":69288,"epoch":"2026-09-19T12:12:50.820192Z","epoch_age_seconds":115718,"freshness":"FRESH","line1":"1 69288U 26118X   26262.50892153  .00000807  00000+0  13489-3 0  9994","line2":"2 69288  51.9010 346.0584 0000315  87.1865 272.9133 14.79928902 18091","mean_motion":14.79928902,"eccentricity":3.15e-5,"inclination_deg":51.901,"raan_deg":346.0584,"arg_perigee_deg":87.1865,"mean_anomaly_deg":272.9133,"bstar":0.00013489,"rev_number":1809,"period_min":97.30197160512,"perigee_km":629.32782348004,"apogee_km":629.76930767067,"semimajor_km":7007.6855655754,"source":"CELESTRAK","updated_at":"2026-09-20T09:00:24.782314Z"}}